TimeCDT,TemperatureF,Dew PointF,Humidity,Sea Level PressureIn,VisibilityMPH,Wind Direction,Wind SpeedMPH,Gust SpeedMPH,PrecipitationIn,Events,Conditions,WindDirDegrees,DateUTC
12:53 AM,77.0,75.0,94,30.02,10.0,Calm,Calm,-,N/A,,Clear,0,2013-08-03 05:53:00
1:53 AM,77.0,75.0,94,29.99,9.0,Calm,Calm,-,N/A,,Clear,0,2013-08-03 06:53:00
2:53 AM,75.9,73.9,94,29.99,9.0,Calm,Calm,-,N/A,,Clear,0,2013-08-03 07:53:00
3:53 AM,75.9,75.0,97,29.99,8.0,Calm,Calm,-,N/A,,Clear,0,2013-08-03 08:53:00
4:53 AM,75.9,73.9,94,29.99,9.0,Calm,Calm,-,N/A,,Clear,0,2013-08-03 09:53:00
5:53 AM,75.0,73.0,94,30.01,8.0,Calm,Calm,-,N/A,,Clear,0,2013-08-03 10:53:00
6:53 AM,77.0,75.0,94,30.02,8.0,Calm,Calm,-,N/A,,Clear,0,2013-08-03 11:53:00
7:53 AM,80.1,77.0,90,30.04,8.0,Calm,Calm,-,N/A,,Clear,0,2013-08-03 12:53:00
8:27 AM,82.4,78.8,89,30.04,10.0,Calm,Calm,-,N/A,,Partly Cloudy,0,2013-08-03 13:27:00
8:53 AM,84.0,78.1,82,30.05,10.0,WNW,3.5,-,N/A,,Mostly Cloudy,300,2013-08-03 13:53:00
9:02 AM,82.4,77.0,84,30.05,10.0,West,4.6,-,N/A,,Mostly Cloudy,280,2013-08-03 14:02:00
9:09 AM,84.2,78.8,84,30.05,10.0,NW,5.8,-,N/A,,Mostly Cloudy,310,2013-08-03 14:09:00
9:39 AM,86.0,77.0,74,30.05,10.0,WNW,5.8,-,N/A,,Partly Cloudy,300,2013-08-03 14:39:00
9:53 AM,86.0,77.0,74,30.04,10.0,West,6.9,-,N/A,,Partly Cloudy,270,2013-08-03 14:53:00
10:37 AM,86.0,75.2,70,30.06,10.0,West,5.8,-,N/A,,Mostly Cloudy,280,2013-08-03 15:37:00
10:53 AM,88.0,75.0,65,30.05,10.0,WNW,5.8,-,N/A,,Scattered Clouds,290,2013-08-03 15:53:00
11:53 AM,90.0,75.9,63,30.05,10.0,NW,8.1,-,N/A,,Scattered Clouds,320,2013-08-03 16:53:00
12:53 PM,91.0,73.9,57,30.03,10.0,NNW,6.9,-,N/A,,Scattered Clouds,330,2013-08-03 17:53:00
1:53 PM,91.9,73.9,55,30.03,10.0,WNW,5.8,-,N/A,,Partly Cloudy,290,2013-08-03 18:53:00
2:53 PM,90.0,77.0,65,29.99,10.0,SW,8.1,-,N/A,,Scattered Clouds,230,2013-08-03 19:53:00
3:53 PM,89.1,75.9,65,29.98,10.0,SW,4.6,-,N/A,,Partly Cloudy,230,2013-08-03 20:53:00
4:16 PM,89.6,77.0,66,29.99,10.0,WSW,10.4,-,N/A,Thunderstorm,Scattered Clouds,240,2013-08-03 21:16:00
4:31 PM,89.6,77.0,66,30.00,10.0,SW,5.8,-,N/A,,Scattered Clouds,220,2013-08-03 21:31:00
4:53 PM,86.0,75.9,72,30.00,10.0,SSW,10.4,-,N/A,,Mostly Cloudy,200,2013-08-03 21:53:00
5:17 PM,84.2,73.4,70,30.00,10.0,South,9.2,-,N/A,Thunderstorm,Mostly Cloudy,190,2013-08-03 22:17:00
5:50 PM,82.4,75.2,79,30.01,10.0,SW,9.2,-,0.00,Rain,Light Rain,230,2013-08-03 22:50:00
5:53 PM,81.0,75.0,82,30.01,10.0,WSW,9.2,-,0.00,Rain,Light Rain,240,2013-08-03 22:53:00
6:53 PM,81.0,75.0,82,30.02,10.0,NW,3.5,-,0.00,,Mostly Cloudy,320,2013-08-03 23:53:00
7:53 PM,80.1,73.9,81,30.03,10.0,ESE,3.5,-,N/A,,Scattered Clouds,120,2013-08-04 00:53:00
8:53 PM,79.0,73.9,84,30.04,10.0,South,3.5,-,N/A,,Scattered Clouds,170,2013-08-04 01:53:00
9:53 PM,78.1,75.9,93,30.06,10.0,Calm,Calm,-,N/A,,Clear,0,2013-08-04 02:53:00
10:53 PM,78.1,75.9,93,30.05,10.0,Calm,Calm,-,N/A,,Clear,0,2013-08-04 03:53:00
11:53 PM,77.0,75.9,96,30.04,10.0,SSW,3.5,-,N/A,,Clear,200,2013-08-04 04:53:00